Starlink 4515

operational
NORAD ID: 53397 Int'l Des: 2022-097 Owner: SPXS Country: US Constellation: starlink
LEOCIRCULAR

About Starlink 4515

Description loading...

Live Position

Loading 3D Globe...

Upcoming Passes

Altitude History

Altitude vs Time

uPlot chart will show altitude changes over time

Two-Line Element Set

1 53397U 22097K 25346.85693303 .00000069 00000-0 22412-4 0 9994
2 53397 53.2160 153.9302 0001333 94.9688 265.1456 15.08840014185401
Epoch: Dec 12, 2025 • Age: 17 hours

Current Status

Altitude 544.8 km
Velocity 7.59 km/s
Sub-Earth Point -17.14°S, 154.47°W
Launch Date Aug 10, 2022
Age 3.3 years
Type internet

Technical Details

Classification Payload
Mass 297.00 kg
Dry Mass 275.00 kg
Total Mass 297.00 kg
Length 0.20 m
Diameter 2.80 m
Span 9.00 m
Shape Box + pan
Manufacturer SPXS
Bus Type Starlink
Phase Status In Orbit
Owner/State SPXS/US

Large Constellations

Loading constellations...